N9DRW Weather Reports


Display with metric or nautical units.
time (UTC)temp
F
wind
direction
speed
MPH
gust
MPH
rain 1hr
in
rain 24hr
in
rain mn
in
humidity
%
barometer
mb
20260502232206 59 280 5.0 16.0 0.00 0.00 0.00 31
20260502231205 59 263 6.0 13.0 0.00 0.00 0.00 31
20260502230206 59 8 5.0 16.0 0.00 0.00 0.00 31
20260502225205 59 333 6.0 13.0 0.00 0.00 0.00 30
20260502224206 58 326 7.0 16.0 0.00 0.00 0.00 31
20260502223206 59 287 7.0 14.0 0.00 0.00 0.00 32
20260502222206 59 268 5.0 13.0 0.00 0.00 0.00 32
20260502221206 59 262 5.0 13.0 0.00 0.00 0.00 31
20260502220205 58 286 2.0 13.0 0.00 0.00 0.00 32
20260502215206 58 271 7.0 18.0 0.00 0.00 0.00 31
20260502214206 58 335 5.0 12.0 0.00 0.00 0.00 32
20260502213206 59 277 5.0 13.0 0.00 0.00 0.00 32
20260502212205 59 296 3.0 15.0 0.00 0.00 0.00 34
20260502211206 58 275 6.0 10.0 0.00 0.00 0.00 30
20260502210206 58 313 5.0 15.0 0.00 0.00 0.00 31
20260502205206 58 264 6.0 13.0 0.00 0.00 0.00 31
20260502204205 57 304 7.0 12.0 0.00 0.00 0.00 31
20260502203206 57 325 6.0 12.0 0.00 0.00 0.00 31
20260502202205 58 31 2.0 10.0 0.00 0.00 0.00 32
20260502201206 57 251 5.0 15.0 0.00 0.00 0.00 32
20260502200206 57 332 6.0 12.0 0.00 0.00 0.00 32
20260502195206 57 300 5.0 13.0 0.00 0.00 0.00 31
20260502194206 56 285 5.0 16.0 0.00 0.00 0.00 34
20260502193205 57 292 4.0 10.0 0.00 0.00 0.00 33
20260502192206 56 326 6.0 13.0 0.00 0.00 0.00 33
20260502191206 56 340 5.0 12.0 0.00 0.00 0.00 34
20260502185205 56 272 5.0 10.0 0.00 0.00 0.00 35
20260502184206 57 337 5.0 14.0 0.00 0.00 0.00 34
20260502183205 56 253 3.0 13.0 0.00 0.00 0.00 40
20260502182206 56 341 5.0 12.0 0.00 0.00 0.00 36
20260502181205 55 333 3.0 9.0 0.00 0.00 0.00 38
20260502180205 55 323 5.0 15.0 0.00 0.00 0.00 37
20260502170206 55 348 5.0 14.0 0.00 0.00 0.00 38
20260502164206 55 347 5.0 10.0 0.00 0.00 0.00 38
20260502163206 54 344 7.0 13.0 0.00 0.00 0.00 37
20260502162206 53 282 6.0 17.0 0.00 0.00 0.00 39
20260502161206 53 318 7.0 15.0 0.00 0.00 0.00 37
20260502152205 50 329 7.0 14.0 0.00 0.00 0.00 44
20260502151206 51 327 6.0 13.0 0.00 0.00 0.00 43
20260502150205 51 330 5.0 12.0 0.00 0.00 0.00 48
20260502130205 43 266 2.0 9.0 0.00 0.00 0.00 77
20260502123206 40 285 2.0 8.0 0.00 0.00 0.00 83
20260502122205 39 210 2.0 7.0 0.00 0.00 0.00 85
20260502121205 39 272 2.0 7.0 0.00 0.00 0.00 86
20260502120205 38 274 2.0 7.0 0.00 0.00 0.00 87
20260502115206 37 296 2.0 6.0 0.00 0.00 0.00 89
20260502114205 36 310 2.0 6.0 0.00 0.00 0.00 92
20260502113206 35 327 3.0 5.0 0.00 0.00 0.00 96
20260502112206 34 336 1.0 1.0 0.00 0.00 0.00 95
20260502111206 34 206 0.0 0.0 0.00 0.00 0.00 94
20260502110205 35 206 0.0 0.0 0.00 0.00 0.00 93
20260502105206 35 241 0.0 2.0 0.00 0.00 0.00 93
20260502104206 35 251 1.0 5.0 0.00 0.00 0.00 94
20260502103205 34 194 0.0 2.0 0.00 0.00 0.00 95
20260502102206 34 199 0.0 1.0 0.00 0.00 0.00 94
20260502101206 35 228 0.0 1.0 0.00 0.00 0.00 94
20260502100206 35 294 0.0 1.0 0.00 0.00 0.00 93
20260502091206 36 279 1.0 2.0 0.00 0.00 0.00 93
20260502090206 36 270 2.0 5.0 0.00 0.00 0.00 93
20260502071206 36 284 1.0 2.0 0.00 0.00 0.00 83
20260502070206 36 283 1.0 5.0 0.00 0.00 0.00 83
20260502065206 36 278 1.0 2.0 0.00 0.00 0.00 80
20260502064206 36 257 1.0 2.0 0.00 0.00 0.00 78
20260502063206 37 260 1.0 2.0 0.00 0.00 0.00 76
20260502062206 37 238 2.0 5.0 0.00 0.00 0.00 76
20260502061205 37 250 2.0 5.0 0.00 0.00 0.00 75
20260502060206 36 237 2.0 6.0 0.00 0.00 0.00 79
20260502055206 35 253 1.0 5.0 0.00 0.00 0.00 77
20260502054206 35 287 0.0 2.0 0.00 0.00 0.00 75
20260502053205 35 81 0.0 0.0 0.00 0.00 0.00 74
20260502052206 35 81 0.0 0.0 0.00 0.00 0.00 73
20260502051205 35 81 0.0 0.0 0.00 0.00 0.00 73
20260502050206 36 81 0.0 0.0 0.00 0.00 0.00 73
20260502045206 36 81 0.0 0.0 0.00 0.00 0.00 71
20260502044206 36 81 0.0 0.0 0.00 0.00 0.00 70
20260502043209 36 81 0.0 0.0 0.00 0.00 0.00 70
20260502042206 37 81 0.0 0.0 0.00 0.00 0.00 68
20260502041206 37 81 0.0 0.0 0.00 0.00 0.00 68
20260502040206 37 81 0.0 0.0 0.00 0.00 0.00 68
20260502035206 38 81 0.0 0.0 0.00 0.00 0.00 67
20260502034206 38 81 0.0 0.0 0.00 0.00 0.00 64
20260502033206 38 81 0.0 0.0 0.00 0.00 0.00 64
20260502032206 39 81 0.0 0.0 0.00 0.00 0.00 63
20260502031206 39 81 0.0 0.0 0.00 0.00 0.00 63
20260502030206 40 81 0.0 0.0 0.00 0.00 0.00 61
20260502025206 41 81 0.0 0.0 0.00 0.00 0.00 59
20260502024206 42 81 0.0 2.0 0.00 0.00 0.00 57
20260502023205 42 89 2.0 3.0 0.00 0.00 0.00 55
20260502022205 42 94 1.0 2.0 0.00 0.00 0.00 54
20260502021206 43 80 1.0 3.0 0.00 0.00 0.00 54
20260502020205 43 74 1.0 5.0 0.00 0.00 0.00 53
20260502015206 43 85 2.0 6.0 0.00 0.00 0.00 53
20260502014205 44 107 2.0 7.0 0.00 0.00 0.00 52
20260502013205 44 82 2.0 5.0 0.00 0.00 0.00 51
20260502012206 45 80 2.0 6.0 0.00 0.00 0.00 50
20260502011205 45 80 2.0 7.0 0.00 0.00 0.00 50
20260502010206 45 90 2.0 5.0 0.00 0.00 0.00 49
20260502005206 46 77 3.0 6.0 0.00 0.00 0.00 47
20260502004206 46 82 2.0 8.0 0.00 0.00 0.00 46
20260502003209 47 81 4.0 10.0 0.00 0.00 0.00 46
20260502002206 47 85 2.0 3.0 0.00 0.00 0.00 47
20260502001205 47 102 0.0 5.0 0.00 0.00 0.00 47
20260502000205 47 84 3.0 6.0 0.00 0.00 0.00 45
20260501235206 47 81 3.0 7.0 0.00 0.00 0.00 46
20260501234206 48 92 4.0 10.0 0.00 0.00 0.00 44
20260501233206 48 90 3.0 7.0 0.00 0.00 0.00 45